THOR BURNER 2 R/B, 3271

Orbit data source: Space-Track

THOR BURNER 2 R/B, 3271 is space debris in SSO originally from a launch on Thu, 23 May 1968 UTC launched from the Air Force Western Test Range (AFWTR). Debris objects in space refer to the collection of defunct objects orbiting the Earth. Examples of debris include non-operational satellites, rocket bodies, and fragments generated from explosions, collisions, or faulty payload assembly.

Loading next visibility...
Identifier
3271, 1968-042B
Orbit
SSO
Country
Flag of USUS
Related business
Manufacturer
Thiokol/TE
Mission
Spacecraft
Bus & Motor
STAR 37, Unknown motor
Mass
154 kg wet, 154 kg dry
Launch date (UTC)
1968-05-23 (58 years ago)
Launch vehicle
Unknown
Launch site
Air Force Western Test Range (AFWTR)
Object type
Payload
Rocket body
Debris
Shape & HBR
Unknown
Radar Cross Section
Large (>1 m²)

Expand to show TLE details & history
Last TLE update: 18 hours ago

TLE from 18 hours ago
0 THOR BURNER 2 R/B
1 03271U 68042B   25354.49802240  .00000081  00000-0  60081-4 0  9999
2 03271  98.5569 170.1503 0051282 346.3705  13.6083 14.17561353971509
Epoch: 2025-12-20T11:57Z
TLE epoch observation values (Epoch: 2025-12-20T11:57:09.135Z)
Latitude
0.00001°
Longitude
-98.46173°
Altitude
800.586 km
Speed
7.472 km/s
True Right ascension
11h 20m 36s
True Declination
0° 00' 00"
Sunlit
Object was in daylight at epoch
Visualization orbit readout
Latitude
Unknown
Longitude
Unknown
Altitude
Unknown
Speed
Unknown
Apparent Right ascension
Unknown
Apparent Declination
Unknown
Sunlit
N/A
Visualization observer readout
Local Sidereal Time
04:59:38
Azimuth
Unknown
Elevation
Unknown
Doppler factor
Unknown
Orbital elements
Apogee altitude
867.735 km
Perigee altitude
793.798 km
Semi-major axis
7,208.903 km
Eccentricity
0.00513
Inclination
98.5569°
RAAN
170.1503°
Arg. of periapsis
346.3705°
True anomaly
13.74743°
Mean anomaly
13.6083°
Eccentric anomaly
13.67778°
Mean motion
3.54601 °/min
Orbital period
101.52 mins
BSTAR
0.000060081
Loading maneuver chart data...
Computing Atmospheric mass density...
Loading historical data...
Loading historical data...
Loading historical data...
Loading historical data...
Loading historical data...
Loading historical data...
Loading historical data...
Other satellites on launch #42 in the year 1968 (1968-05-23 UTC)

Documentation

Showing up to 5 results
|